Starlink 32460

operational
NORAD ID: 61914 Int'l Des: 2024-207 Owner: SPXS Country: US Constellation: starlink
LEOCIRCULAR

关于 Starlink 32460

正在加载描述...

实时位置

正在加载3D地球...

即将过境

高度历史

Altitude vs Time

uPlot chart will show altitude changes over time

两行轨道根数

1 61914U 24207C 25352.13113736 .00014329 00000-0 52907-3 0 9993
2 61914 43.0028 21.9207 0000492 328.5770 31.5052 15.27588763 62251
Epoch: Dec 18, 2025 • Age: 10 hours

当前状态

高度 483.4 km
速度 7.63 km/s
星下点 26.61°N, 117.66°W
发射日期 Nov 11, 2024
运行时间 1 years
类型 internet

技术详情

分类 Payload
质量 730.00 kg
干质量 700.00 kg
总质量 730.00 kg
长度 0.30 m
直径 4.10 m
跨度 29.00 m
形状 Box + pan
制造商 SPXS
平台类型 Starlink V2M
阶段状态 In Orbit
所有者/国家 SPXS/US

大型星座

Loading constellations...